Location: Melbourne
(37.8170°S, 144.9670°E)
Time: 02:25:11
(UTC+10:00)

ERBS - Visible Passes

Search period start: 24 May 2015 00:00
Search period end: 03 June 2015 00:00
Orbit: 446 x 472 km, 57.0° (Epoch: 23 May)

Date Brightness Start Highest point End Pass type
(mag) Time Alt. Az. Time Alt. Az. Time Alt. Az.
24 May 5.0 06:19:13 10° N 06:22:15 25° NE 06:25:23 10° ESE visible
25 May 5.4 05:45:25 10° NNE 05:47:57 18° ENE 05:50:35 10° ESE visible
26 May 5.7 05:11:58 10° NNE 05:13:38 13° ENE 05:15:28 10° E visible
26 May 2.7 06:46:54 10° WNW 06:50:29 52° SW 06:54:08 10° SSE visible
27 May 2.4 06:12:25 10° NW 06:16:03 74° SW 06:19:46 10° SE visible
28 May 2.5 05:40:22 38° NNW 05:41:38 78° NE 05:45:21 10° SE visible
29 May 4.0 05:08:30 34° ESE 05:08:30 34° ESE 05:10:52 10° SE visible
29 May 4.2 06:42:22 11° WSW 06:44:44 17° SW 06:47:17 10° S visible
30 May 5.8 04:36:15 10° ESE 04:36:15 10° ESE 04:36:18 10° ESE visible
30 May 3.9 06:10:06 22° SW 06:10:10 22° SW 06:13:07 10° SSE visible
31 May 4.5 05:37:33 18° S 05:37:33 18° S 05:38:52 10° SSE visible
